Wetbulb
47.35 47.55 47.63 47.93 48.41 48.80 43.55 32.70 23.41 33.94 35.04 24.20 22.15 18.81 23.55 29.29 26.91 27.89 25.11 25.48 22.92 17.60 19.47 18.95 15.31 17.37 21.94 28.41 26.77 20.87 24.92 23.73 21.43 27.21 32.57 34.27 35.48 30.05 31.50 25.78 23.05 23.80 19.00 24.57
47.82 47.49 47.36 47.73 47.91 48.06 39.25 31.59 30.12 35.08 31.94 17.23 19.17 23.54 24.86 27.13 25.92 25.88 23.87 23.34 24.69 22.95 20.00 16.88 18.88 20.64 26.69 27.40 26.09 22.09 24.65 21.98 16.67 25.69 30.46 34.11 29.96 31.98 33.63 29.72 31.11 25.98 23.24 24.66
48.33 48.00 47.34 47.67 48.00 47.92 37.74 32.13 22.43 26.71 26.79 26.33 19.66 19.19 22.20 23.29 29.10 27.23 26.37 24.55 24.14 19.24 19.12 20.38 16.46 18.29 24.32 26.86 25.56 30.96 29.00 23.68 21.70 17.75 22.69 26.72 27.92 30.55 32.86 32.16 26.90 27.19 28.23 27.77
47.97 47.69 48.02 47.52 47.54 47.38 39.45 29.57 20.42 28.51 18.19 23.51 22.65 21.89 24.00 22.84 23.89 25.50 24.79 21.63 21.78 20.73 17.95 18.07 16.86 19.70 21.16 24.18 26.76 26.58 24.10 16.04 20.29 21.67 23.08 24.50 24.72 27.89 31.82 30.76 31.94 27.48 29.85 27.60
47.12 47.59 47.69 48.07 47.50 46.92 37.95 31.13 28.81 30.17 23.75 23.99 23.30 21.51 18.94 22.30 23.53 25.79 21.52 19.85 23.44 22.46 17.96 18.66 16.33 19.83 20.51 19.32 20.07 16.78 19.66 12.18 19.20 17.31 22.98 23.64 23.31 29.53 32.20 32.75 32.52 31.54 28.26 26.39
47.06 47.37 46.86 46.85 47.06 45.88 38.86 37.34 35.72 31.22 22.04 20.70 21.86 18.74 20.51 21.48 24.02 25.44 26.99 24.64 23.00 20.95 22.88 25.51 25.66 25.68 24.69 23.52 21.38 20.68 20.00 15.41 18.51 13.43 23.21 27.94 23.78 23.50 27.68 24.66 22.93 27.25 26.06 27.02
47.01 46.37 47.05 46.69 46.64 46.14 41.97 39.62 36.16 28.26 19.19 21.02 23.13 23.36 23.30 23.08 24.30 23.96 26.62 25.75 21.14 26.00 29.48 27.76 27.24 25.35 26.23 27.49 26.57 26.01 21.30 20.20 19.34 14.22 24.56 18.42 23.20 25.13 26.59 22.10 21.91 22.83 22.45 23.02
46.43 46.72 46.47 46.47 46.61 46.58 41.67 40.90 36.26 29.40 21.07 23.02 24.29 23.23 23.12 23.64 24.10 23.79 24.61 24.95 26.56 27.83 24.89 20.93 16.79 20.78 19.88 22.28 26.02 25.71 25.24 22.07 17.96 19.67 20.14 20.88 20.53 20.14 19.98 22.23 17.93 19.83 21.29 21.53
46.23 46.90 47.16 46.13 45.88 46.02 43.09 41.35 40.62 33.84 24.84 19.54 24.89 23.62 23.73 19.79 19.40 20.75 23.78 27.89 28.80 26.19 23.80 17.90 10.05 11.45 14.67 15.46 19.17 25.71 25.64 25.00 20.86 20.10 15.52 11.42 12.15 16.82 21.89 25.55 16.28 17.78 19.13 18.66
46.63 46.64 46.53 45.89 45.67 45.72 43.37 41.03 40.97 36.19 28.03 26.11 25.22 25.16 22.28 26.77 25.85 24.07 22.73 24.72 25.79 26.10 19.18 13.39 10.99 11.23 18.10 10.34 12.90 16.17 14.99 13.06 15.80 17.91 17.69 13.74 14.12 19.50 23.22 10.62 9.84 15.70 17.14 17.33
46.34 46.42 46.45 46.08 45.45 45.10 43.09 39.36 41.29 37.66 31.42 28.31 29.18 28.71 25.39 26.40 26.83 21.35 24.03 22.93 22.59 23.67 13.57 11.73 13.79 13.14 12.80 11.70 16.18 10.64 7.26 6.69 9.22 11.92 11.60 8.77 15.35 16.19 9.54 12.76 15.08 15.19 16.07 19.12
46.15 46.16 46.29 45.36 45.02 44.95 44.16 39.48 41.53 41.71 35.31 32.42 34.39 34.19 34.50 31.90 30.94 29.18 28.19 24.23 27.07 28.41 20.84 15.89 12.29 12.35 9.38 8.58 9.93 14.09 5.25 6.60 4.95 9.12 11.50 15.52 15.51 13.85 15.75 15.08 13.16 14.00 15.71 17.55
45.48 45.51 45.62 45.12 44.82 44.64 44.18 39.09 39.07 39.19 29.67 26.42 25.77 26.07 30.62 33.42 32.67 33.54 28.82 26.86 31.31 29.72 31.68 27.09 21.33 9.73 19.31 11.15 6.95 7.75 8.27 10.93 9.15 7.75 14.31 10.16 13.68 14.67 14.88 14.27 12.79 15.89 16.30 16.86
45.31 45.58 45.21 44.75 44.29 44.03 44.16 35.67 39.75 32.38 30.19 24.86 23.71 30.61 27.77 30.98 32.06 32.53 33.05 32.17 33.97 33.98 32.16 26.89 22.41 20.54 24.42 9.25 7.59 5.77 7.51 8.98 5.99 8.44 13.02 10.46 18.11 12.35 12.72 12.66 14.65 14.09 15.46 16.57
45.31 45.01 44.70 44.16 43.70 43.64 39.26 34.96 35.07 35.95 33.54 23.10 24.01 27.40 27.18 28.41 29.03 29.23 29.97 30.99 32.04 29.05 27.62 23.87 22.18 20.32 17.62 12.07 9.65 4.77 9.55 6.49 3.16 2.70 9.40 8.56 8.46 11.19 12.21 11.81 11.51 13.05 13.68 15.53
45.48 45.22 43.89 43.42 42.86 42.52 35.27 28.09 38.99 39.79 38.61 29.30 20.00 23.08 23.42 25.26 27.02 26.69 27.71 29.43 30.75 31.04 27.62 19.69 18.26 20.29 18.83 10.36 5.65 8.34 10.18 11.33 11.38 7.20 10.85 10.59 10.23 11.09 12.27 10.80 11.55 13.26 15.85 16.91
44.43 44.19 43.18 42.16 42.31 38.78 30.59 27.04 37.13 41.51 39.61 30.38 18.65 13.96 21.27 24.08 24.80 22.18 23.10 29.14 25.93 24.92 21.30 16.78 15.27 13.48 14.13 7.73 2.73 8.67 10.01 10.10 9.58 9.78 9.39 6.75 9.63 7.32 10.08 10.99 12.00 14.16 15.46 17.08
43.65 42.43 41.25 40.89 43.45 41.72 36.39 37.93 39.93 41.12 34.23 26.21 10.96 12.43 16.64 21.55 17.78 15.35 16.90 22.71 21.56 18.53 16.76 15.25 12.41 10.95 9.32 0.51 7.24 9.34 9.54 8.81 5.99 6.81 8.54 7.33 7.82 8.14 9.12 10.44 10.55 10.19 11.45 13.51
41.79 40.16 39.91 35.13 31.38 27.57 29.12 39.09 39.90 34.56 30.12 22.76 15.15 3.23 9.10 17.85 15.30 15.08 14.73 15.51 10.98 9.42 5.47 8.75 9.45 -0.49 -2.31 3.66 7.28 7.76 8.71 6.60 6.23 7.54 6.66 6.06 5.96 6.13 7.53 8.51 8.66 8.15 9.24 11.43
38.94 33.12 29.04 22.86 28.49 36.82 36.30 27.72 26.65 15.46 11.72 9.59 5.49 3.57 5.25 11.81 10.09 6.85 5.88 15.89 6.50 2.58 7.42 5.32 -0.99 -1.78 4.64 7.45 9.34 8.64 9.11 9.37 8.07 1.41 3.36 5.18 4.69 6.04 6.77 7.96 9.93 10.28 10.26 11.50
31.08 28.06 25.20 29.55 32.40 24.29 14.60 6.61 7.44 1.94 2.80 4.49 5.10 4.37 3.95 10.44 4.63 2.21 8.52 6.69 3.94 -0.03 2.82 -1.17 -14.93 -9.27 2.55 7.96 6.69 7.62 7.99 7.95 8.37 8.61 9.09 8.34 8.04 7.44 7.38 8.73 10.46 11.76 11.58 11.93
32.35 32.76 34.56 25.14 15.09 8.97 9.09 -2.99 2.98 3.55 3.40 2.09 -0.16 4.24 3.82 4.53 9.20 4.71 8.92 4.67 4.76 -0.69 2.88 -4.53 -13.34 0.72 7.12 8.68 8.18 9.30 9.26 8.70 6.77 6.93 7.89 8.43 8.88 9.05 8.95 9.46 10.35 11.94 12.93 12.93
28.58 17.78 13.58 12.96 10.81 7.70 2.15 0.25 4.07 5.31 3.79 0.51 0.83 1.44 -1.97 4.31 8.16 3.32 3.85 2.72 1.09 5.44 -2.67 -5.37 -2.27 5.38 7.31 8.84 9.16 9.09 9.63 8.87 6.91 5.45 4.56 6.07 6.45 6.57 8.50 8.58 10.60 12.68 12.37 13.74
16.35 11.60 11.12 10.65 4.77 2.68 2.14 4.73 6.15 8.35 -0.04 -2.87 -10.29 -7.90 -3.44 0.49 2.08 -0.37 1.87 4.67 4.54 -6.43 -8.57 -3.69 2.09 6.43 8.95 9.45 9.55 8.31 7.87 7.91 6.83 5.78 6.26 5.73 7.83 8.06 9.41 9.91 10.61 11.28 10.89 13.18
13.49 12.94 10.80 7.02 9.97 7.42 4.85 3.12 2.34 0.11 -7.53 -7.06 -5.64 -2.89 -2.06 -2.11 -0.34 1.85 4.75 3.71 -3.75 -2.12 -1.98 2.48 6.11 8.25 9.49 9.09 9.07 8.51 8.45 7.81 7.46 5.89 5.89 6.70 8.24 9.13 8.70 9.54 10.46 10.87 11.37 11.26
10.69 9.88 9.24 8.82 7.56 1.82 1.29 -5.78 -3.27 -3.87 -6.77 -1.61 -1.51 -5.33 -3.62 -3.60 -2.15 0.28 -3.66 -1.64 -6.69 -1.25 2.82 6.22 8.47 8.77 9.39 9.67 10.19 10.48 10.79 8.46 7.33 8.60 8.65 7.69 7.38 7.48 8.24 10.20 10.08 10.20 10.30 9.93
7.39 6.79 9.32 5.74 5.03 3.23 1.16 0.42 1.35 0.08 -1.05 -5.97 -7.21 -4.28 -4.48 -0.56 -3.09 -3.43 0.96 -1.94 1.01 3.85 5.90 8.23 8.67 9.21 9.35 10.26 10.85 11.41 11.54 10.48 9.63 9.01 9.28 8.62 8.83 9.14 7.98 7.59 9.45 10.09 10.58 10.45
MSLP
1023.10 1022.37 1021.36 1020.38 1019.34 1018.32 1017.33 1017.84 1017.27 1014.78 1014.28 1014.87 1015.80 1015.87 1015.44 1014.28 1013.06 1012.59 1012.39 1012.12 1012.02 1011.99 1011.74 1011.38 1010.47 1009.40 1008.57 1007.24 1007.07 1005.79 1005.22 1003.58 1000.42 997.62 995.62 994.73 994.70 995.15 996.01 996.17 997.25 997.47 996.96 995.22
1022.90 1022.16 1021.42 1020.49 1019.59 1018.88 1018.66 1018.65 1017.91 1015.56 1015.52 1016.45 1016.71 1015.91 1015.25 1014.47 1013.52 1013.00 1012.67 1012.48 1012.13 1011.88 1011.91 1011.90 1010.78 1009.08 1008.11 1007.66 1007.66 1006.93 1006.06 1004.27 1001.83 998.47 997.23 995.91 995.51 995.09 995.37 995.59 995.94 995.73 995.84 994.80
1022.81 1022.07 1021.41 1020.59 1019.67 1018.86 1018.79 1019.24 1019.01 1017.51 1017.16 1017.56 1017.78 1017.06 1015.43 1014.68 1013.66 1013.04 1012.75 1012.53 1012.19 1012.20 1011.59 1011.29 1010.76 1009.44 1008.12 1007.51 1007.48 1006.70 1006.26 1004.83 1003.15 1000.86 999.11 998.93 997.45 995.98 995.42 995.26 995.25 995.47 994.58 995.29
1022.91 1022.19 1021.44 1020.67 1019.99 1019.21 1019.38 1019.81 1019.95 1019.66 1018.88 1017.90 1018.21 1017.83 1016.39 1015.29 1014.27 1013.52 1012.95 1012.44 1012.43 1012.37 1011.15 1010.13 1009.40 1008.78 1007.84 1007.29 1006.31 1006.68 1006.61 1005.54 1003.80 1001.50 999.87 999.17 998.37 997.35 996.15 995.75 995.45 995.52 995.91 996.64
1022.93 1022.36 1021.56 1020.64 1020.21 1019.50 1019.66 1019.99 1019.87 1019.58 1019.06 1018.57 1018.40 1017.54 1016.77 1015.98 1015.03 1014.51 1013.29 1013.15 1011.94 1011.69 1011.23 1010.35 1008.74 1008.42 1007.91 1007.79 1007.16 1007.46 1007.01 1005.92 1004.24 1001.18 998.40 998.74 998.87 998.05 997.06 997.08 996.82 997.38 997.68 999.00
1022.99 1022.27 1021.56 1020.93 1020.10 1019.51 1019.49 1019.76 1019.73 1019.74 1018.84 1018.74 1018.52 1017.76 1017.06 1016.21 1015.51 1013.90 1013.22 1012.83 1012.15 1010.95 1009.76 1008.81 1008.15 1007.52 1007.06 1007.12 1006.88 1006.82 1007.00 1006.04 1003.87 1001.41 999.82 998.72 999.67 1000.44 999.40 1000.20 1000.63 1001.03 1001.43 1002.24
1022.73 1022.09 1021.43 1020.73 1020.15 1019.71 1019.51 1019.20 1019.12 1019.21 1018.87 1018.71 1018.19 1017.57 1017.07 1016.24 1015.56 1014.70 1013.19 1012.66 1012.15 1010.43 1009.24 1007.66 1006.59 1006.21 1006.38 1006.12 1005.67 1005.98 1005.66 1004.87 1004.15 1002.26 1000.21 1000.55 1002.98 1003.34 1002.88 1003.29 1004.53 1004.90 1004.82 1004.77
1023.06 1022.28 1021.31 1020.51 1019.76 1019.31 1019.24 1018.97 1019.02 1019.12 1018.59 1018.06 1017.47 1017.20 1016.70 1015.93 1014.96 1014.31 1013.33 1012.33 1011.71 1010.77 1009.89 1009.05 1008.12 1006.75 1006.88 1006.55 1005.88 1006.06 1005.57 1005.15 1004.61 1003.21 1002.60 1004.00 1004.49 1005.41 1006.36 1005.63 1007.11 1007.92 1007.60 1006.89
1022.59 1021.79 1021.00 1020.27 1019.78 1019.39 1018.76 1018.55 1018.51 1018.84 1018.86 1017.49 1017.05 1016.96 1016.41 1015.92 1015.13 1014.19 1013.30 1012.23 1011.39 1011.26 1011.05 1010.89 1010.76 1010.00 1009.33 1008.17 1006.96 1006.43 1005.64 1005.51 1005.39 1004.45 1005.24 1007.13 1009.71 1007.76 1006.31 1005.99 1008.44 1009.87 1010.11 1009.14
1022.15 1021.54 1020.80 1020.04 1019.35 1018.84 1018.47 1018.15 1018.15 1018.52 1018.12 1016.87 1016.82 1016.76 1016.46 1016.07 1015.77 1015.13 1013.83 1012.93 1012.02 1011.81 1012.18 1012.47 1012.56 1012.00 1011.23 1010.89 1010.16 1009.02 1007.95 1007.99 1007.60 1007.12 1007.31 1009.88 1011.88 1009.49 1007.67 1009.61 1013.28 1012.33 1011.89 1010.92
1021.92 1021.16 1020.41 1019.61 1018.99 1018.33 1017.84 1017.39 1017.23 1017.76 1017.55 1016.53 1016.19 1016.29 1016.23 1015.99 1015.79 1015.41 1014.31 1013.65 1013.05 1012.73 1013.13 1013.82 1013.96 1013.64 1012.94 1012.81 1012.90 1012.97 1013.27 1012.91 1011.99 1011.41 1011.49 1013.25 1013.72 1012.18 1012.95 1015.97 1014.98 1014.10 1013.13 1011.91
1021.77 1020.93 1020.07 1019.45 1018.74 1018.10 1017.46 1017.22 1016.86 1016.89 1017.28 1016.20 1015.73 1015.43 1015.31 1015.44 1015.12 1015.38 1014.84 1014.50 1014.01 1013.54 1013.69 1014.21 1014.43 1014.66 1014.13 1014.27 1014.97 1015.07 1016.23 1017.22 1016.67 1015.72 1014.58 1014.91 1015.76 1016.39 1016.92 1016.93 1016.16 1014.88 1013.86 1012.55
1021.25 1020.45 1019.90 1019.30 1018.49 1017.88 1017.65 1017.51 1017.35 1017.12 1017.03 1016.28 1015.87 1014.99 1014.90 1014.86 1014.82 1014.74 1015.11 1014.21 1013.86 1013.76 1013.63 1013.86 1014.35 1014.71 1014.48 1015.49 1017.08 1017.71 1018.50 1018.50 1017.69 1016.50 1015.45 1015.62 1015.99 1016.59 1017.12 1016.88 1015.99 1014.98 1014.35 1013.05
1021.03 1020.30 1019.37 1018.59 1017.98 1017.43 1017.08 1017.57 1017.48 1017.68 1017.72 1017.49 1015.81 1014.84 1014.88 1014.60 1014.64 1014.71 1014.50 1014.00 1013.72 1013.76 1013.75 1013.84 1014.19 1014.58 1014.80 1017.39 1018.81 1019.80 1021.01 1020.33 1019.84 1018.21 1017.19 1016.44 1015.59 1016.61 1017.01 1016.51 1015.69 1014.81 1014.08 1012.72
1020.48 1019.69 1019.16 1018.55 1017.83 1017.06 1017.21 1017.52 1017.53 1017.56 1017.95 1017.66 1016.43 1015.30 1014.89 1014.79 1014.67 1014.30 1013.90 1013.75 1013.71 1013.71 1013.58 1013.94 1014.82 1015.83 1017.02 1018.99 1020.00 1021.47 1022.15 1022.20 1021.95 1020.95 1020.62 1020.67 1019.17 1018.29 1017.65 1016.50 1015.61 1014.43 1012.90 1011.71
1019.81 1018.99 1018.39 1017.79 1017.39 1017.02 1017.41 1017.77 1017.47 1017.31 1017.32 1017.70 1017.42 1016.20 1015.75 1015.21 1014.77 1014.45 1014.23 1013.95 1013.83 1013.91 1014.11 1015.72 1017.02 1017.86 1017.98 1019.72 1021.31 1022.42 1022.80 1022.91 1022.79 1022.13 1021.36 1020.78 1020.01 1019.42 1018.62 1017.74 1016.36 1014.70 1013.15 1011.98
1019.11 1018.22 1017.66 1016.96 1016.67 1017.02 1017.21 1017.43 1017.25 1016.96 1017.14 1017.63 1018.17 1017.78 1016.74 1016.27 1015.73 1015.43 1015.19 1014.79 1015.09 1015.37 1016.50 1017.75 1018.83 1019.47 1019.81 1021.69 1022.97 1023.04 1023.03 1022.85 1022.52 1022.22 1021.81 1020.70 1020.35 1019.82 1018.90 1018.03 1016.94 1015.79 1014.48 1013.34
1018.44 1017.41 1016.76 1016.39 1016.19 1016.65 1017.05 1017.25 1016.98 1016.72 1017.46 1018.40 1019.56 1019.16 1018.40 1017.85 1017.63 1017.50 1016.83 1016.59 1016.51 1017.34 1018.50 1019.66 1020.60 1021.39 1022.24 1023.88 1024.48 1024.26 1023.91 1023.38 1022.74 1022.41 1022.24 1021.93 1021.02 1019.97 1018.76 1017.88 1016.89 1015.70 1014.81 1014.02
1017.82 1017.38 1016.98 1017.08 1017.28 1017.85 1017.93 1017.52 1017.25 1017.50 1018.57 1019.67 1021.28 1022.57 1021.68 1019.85 1019.62 1019.31 1018.51 1018.24 1018.76 1019.31 1020.34 1021.49 1022.22 1023.99 1024.82 1025.17 1025.05 1024.83 1024.65 1024.59 1023.92 1022.89 1022.19 1021.42 1020.65 1019.68 1018.93 1018.23 1017.13 1016.28 1015.38 1014.62
1018.06 1017.53 1017.54 1018.16 1018.37 1018.01 1017.79 1017.93 1018.26 1018.90 1020.83 1021.98 1023.84 1024.63 1023.61 1022.76 1022.04 1021.09 1020.68 1019.73 1020.19 1021.16 1022.08 1022.70 1024.29 1025.94 1025.98 1025.68 1025.56 1025.25 1024.90 1024.61 1024.15 1023.59 1022.42 1021.49 1020.63 1020.05 1019.31 1018.50 1017.55 1016.93 1016.40 1015.69
1019.21 1018.98 1019.02 1018.66 1018.37 1018.40 1019.56 1021.10 1022.19 1023.19 1024.46 1025.02 1025.51 1025.56 1025.28 1023.84 1023.85 1023.00 1022.16 1021.49 1021.44 1022.24 1023.22 1023.90 1026.29 1026.90 1026.57 1025.95 1025.66 1025.25 1024.97 1024.73 1024.39 1023.90 1023.33 1022.77 1022.03 1020.99 1020.03 1018.90 1018.09 1017.39 1016.71 1016.23
1019.95 1019.82 1019.40 1019.53 1019.79 1020.65 1021.74 1024.07 1025.45 1025.90 1026.95 1026.95 1026.84 1026.61 1026.15 1025.02 1024.29 1023.83 1022.68 1022.64 1022.54 1023.50 1023.84 1024.93 1026.87 1026.98 1026.41 1025.94 1025.46 1025.08 1024.80 1024.55 1024.35 1023.98 1023.51 1022.81 1022.25 1021.46 1020.64 1019.68 1018.75 1018.09 1017.46 1016.83
1020.13 1020.12 1020.88 1021.53 1022.26 1023.32 1024.85 1026.31 1027.28 1027.79 1028.10 1028.47 1028.12 1027.78 1026.90 1025.69 1025.05 1024.35 1023.96 1023.61 1023.84 1024.01 1024.81 1026.47 1027.04 1026.81 1026.27 1025.85 1025.44 1024.99 1024.74 1024.56 1024.34 1024.05 1023.59 1023.00 1022.43 1021.81 1021.17 1020.48 1019.64 1018.89 1018.23 1017.60
1021.32 1022.07 1022.66 1023.80 1024.60 1025.77 1026.41 1027.21 1028.20 1028.40 1028.81 1029.22 1029.24 1028.85 1028.06 1026.94 1026.02 1025.33 1024.82 1024.83 1024.67 1025.38 1026.33 1027.06 1027.04 1026.70 1026.18 1025.83 1025.46 1025.03 1024.73 1024.49 1024.27 1024.01 1023.57 1023.08 1022.53 1022.11 1021.51 1020.90 1020.28 1019.64 1019.09 1018.52
1022.54 1023.30 1024.49 1025.24 1025.67 1026.25 1026.97 1027.59 1028.46 1028.87 1029.34 1029.91 1029.63 1029.12 1028.67 1027.69 1026.94 1026.31 1025.73 1025.46 1026.39 1026.97 1027.37 1027.31 1027.15 1026.66 1026.12 1025.75 1025.39 1025.02 1024.73 1024.55 1024.30 1024.00 1023.71 1023.24 1022.73 1022.23 1021.83 1021.35 1020.89 1020.35 1019.83 1019.41
1023.37 1024.25 1025.29 1025.98 1026.47 1027.25 1027.81 1028.42 1029.19 1029.30 1029.57 1029.83 1029.77 1029.66 1028.83 1028.59 1028.15 1027.33 1027.60 1027.45 1027.91 1028.03 1027.96 1027.62 1027.08 1026.64 1026.21 1025.78 1025.41 1025.01 1024.71 1024.55 1024.41 1024.12 1023.82 1023.46 1023.02 1022.59 1022.20 1021.69 1021.35 1021.00 1020.69 1020.40
1024.84 1025.57 1025.71 1026.42 1026.83 1027.52 1028.19 1028.95 1029.34 1029.36 1029.71 1030.42 1030.13 1029.87 1029.52 1029.04 1028.75 1028.76 1028.59 1028.70 1028.79 1028.64 1028.23 1027.87 1027.41 1026.88 1026.48 1025.93 1025.48 1025.09 1024.82 1024.59 1024.40 1024.21 1023.96 1023.68 1023.29 1022.81 1022.43 1022.07 1021.79 1021.50 1021.27 1021.07
Wind_Speed
26 28 29 30 31 32 13 3 5 5 6 7 2 3 9 13 8 3 5 4 4 3 6 6 4 5 7 11 11 17 5 6 6 5 4 4 21 10 18 10 5 6 2 10
24 26 28 29 31 31 6 7 4 5 4 5 7 5 7 3 5 4 4 4 3 3 4 7 7 7 9 13 5 6 6 4 6 3 3 5 6 11 19 2 13 17 13 7
24 24 27 29 29 28 4 4 6 5 4 1 0 8 4 8 8 6 5 6 2 4 11 5 7 16 9 7 14 16 2 5 8 6 5 4 7 13 14 21 16 18 21 9
25 26 26 27 28 27 3 2 4 2 6 6 9 4 5 13 10 4 4 5 2 10 10 16 6 14 18 8 10 3 3 6 10 17 17 15 17 14 20 20 21 17 15 9
26 27 26 26 25 24 2 3 2 2 4 5 5 5 4 11 15 5 6 4 19 15 9 14 23 21 18 10 5 2 2 6 6 11 15 18 17 9 18 22 15 10 4 5
26 25 24 25 25 19 3 1 2 2 4 4 3 3 5 10 14 9 7 11 15 15 14 20 22 21 18 16 17 7 4 4 4 6 9 5 7 16 7 16 18 7 5 10
25 25 25 24 24 19 3 3 2 1 6 2 6 7 6 12 12 11 13 9 4 10 20 22 8 8 6 4 6 8 4 3 1 7 9 4 7 21 19 22 17 18 16 19
27 26 26 25 24 22 3 2 1 1 5 4 11 7 6 9 8 7 8 5 8 12 9 6 8 5 4 3 6 5 10 1 4 4 4 3 13 19 13 8 12 22 18 20
26 26 25 26 24 23 5 4 3 1 3 5 3 6 5 5 5 6 5 6 6 6 3 4 6 5 6 7 13 10 13 3 3 4 4 7 14 22 25 12 8 25 21 22
27 27 26 25 25 22 10 3 3 2 3 5 2 5 4 3 5 6 6 9 8 4 5 4 4 4 5 6 9 15 9 7 9 10 5 7 15 25 15 11 9 23 20 20
27 27 26 25 25 22 9 5 7 3 4 6 5 3 3 5 4 3 6 7 3 3 6 3 3 3 3 3 5 7 6 8 6 7 5 2 22 10 11 5 11 16 18 14
27 27 26 26 26 22 13 3 2 3 4 6 4 9 15 9 12 4 3 4 5 3 2 0 0 3 3 1 3 7 6 4 4 3 4 4 13 10 7 10 14 16 18 18
27 27 27 27 26 19 12 2 2 1 2 5 3 2 1 1 4 4 4 2 3 2 1 2 1 2 1 3 4 3 8 11 3 11 4 21 10 11 17 19 19 17 17 18
29 29 27 26 24 16 7 1 1 3 1 3 7 2 4 3 1 4 7 9 2 2 2 2 3 2 6 4 3 4 4 10 12 8 8 20 10 27 26 23 20 20 17 17
30 28 27 27 22 13 2 1 1 2 1 3 6 6 1 4 4 10 7 7 5 3 2 3 3 4 4 2 4 3 5 5 5 6 15 10 20 24 25 23 24 22 22 19
28 27 27 25 20 3 3 3 0 1 2 2 4 4 4 5 8 6 6 4 2 2 2 4 3 4 2 3 3 2 6 6 8 7 16 15 20 17 17 20 21 22 21 19
28 29 29 23 15 2 3 4 1 6 2 2 5 6 4 6 4 4 4 4 3 4 3 4 3 5 5 3 3 12 13 12 13 10 12 8 10 16 19 17 17 17 14 11
31 32 24 9 4 7 2 3 11 4 2 2 1 6 6 7 4 5 3 3 3 5 3 3 3 3 3 4 4 9 11 13 10 12 12 12 14 14 16 13 13 14 12 11
31 20 7 4 5 3 3 14 5 4 3 1 3 2 5 8 3 2 5 2 4 2 3 2 3 3 4 3 8 8 9 6 12 16 14 13 12 14 15 14 14 12 12 11
17 6 3 3 1 12 7 6 2 6 6 6 3 1 4 3 4 4 3 2 1 3 2 3 5 1 3 3 5 6 8 9 8 6 14 18 16 15 16 14 12 10 9 9
5 5 3 3 9 4 4 3 5 4 6 4 2 2 2 3 1 4 1 3 1 3 4 5 2 3 3 6 7 6 6 6 7 5 7 8 11 12 12 13 12 11 10 9
5 7 4 4 5 4 7 1 5 5 1 4 1 3 2 5 2 1 3 1 3 1 1 6 3 3 5 7 8 8 6 6 7 5 7 8 8 8 9 10 11 11 9 9
3 4 4 4 4 8 7 4 6 5 3 3 4 5 0 5 2 2 3 3 1 1 5 2 2 4 5 7 7 8 7 6 5 6 5 5 7 7 7 9 9 9 9 9
3 3 5 4 4 1 4 4 3 3 0 3 1 2 1 2 4 2 2 2 2 4 4 2 2 6 8 7 6 5 8 8 7 7 7 6 7 7 8 9 9 8 9 9
2 3 1 0 3 2 1 1 2 2 2 2 3 2 2 3 3 2 3 4 4 3 2 2 6 10 8 7 8 7 6 6 6 5 6 7 7 7 7 8 8 9 9 9
4 4 3 1 2 3 3 2 2 1 0 0 2 0 3 3 1 4 4 2 2 2 3 5 7 8 8 7 7 7 6 4 5 5 6 5 7 6 6 5 7 8 8 8
3 0 1 2 2 3 2 2 2 1 2 1 2 4 1 2 3 3 3 2 3 5 5 5 8 8 8 8 7 7 7 6 5 5 5 6 6 5 5 7 6 5 6 6
Wind_Direction
347 348 349 347 346 347 356 10 333 318 359 32 44 349 314 303 303 359 291 280 236 253 318 322 290 277 290 325 331 330 333 303 284 286 12 205 201 170 192 204 176 229 169 248
344 346 347 346 345 352 345 334 284 314 31 24 347 306 295 275 307 311 312 284 269 326 299 323 264 292 292 306 346 323 333 310 301 199 21 349 228 218 199 173 205 219 216 235
342 344 346 344 345 351 46 342 328 310 29 72 151 322 312 328 296 280 245 267 322 328 308 269 266 282 291 297 298 297 215 235 259 268 296 338 293 244 217 207 216 226 230 223
344 345 344 346 349 350 65 24 275 267 308 336 330 286 295 323 331 301 359 309 231 316 299 310 251 300 305 305 298 155 103 271 263 266 268 267 252 260 235 222 224 219 233 226
344 346 346 344 348 351 92 302 290 238 282 285 306 313 289 328 334 311 311 268 308 311 278 276 298 309 310 273 292 92 239 263 296 277 288 242 242 265 211 237 235 244 133 128
345 344 345 344 344 356 303 172 255 253 284 301 313 270 303 309 320 284 243 302 305 305 293 303 296 283 276 259 275 283 229 233 292 287 339 179 88 336 316 63 33 348 0 3
343 341 342 342 343 346 302 283 265 273 276 258 292 294 294 306 311 279 293 303 266 289 312 306 284 271 257 320 330 194 253 212 256 280 332 94 116 21 64 82 50 28 14 2
341 341 340 339 337 337 305 286 217 244 271 249 297 306 282 299 278 279 282 286 250 316 313 330 333 352 26 321 27 16 239 137 264 310 353 146 24 357 331 323 57 16 359 351
336 335 335 338 340 337 325 287 170 233 305 256 283 315 321 310 321 320 263 299 306 347 333 9 5 359 317 345 329 1 8 143 312 338 57 41 335 316 326 206 85 11 350 341
333 334 336 339 339 339 326 270 166 204 251 262 167 288 276 313 304 282 301 331 338 8 8 6 2 316 321 357 340 344 359 357 9 347 47 84 348 332 328 55 316 333 331 326
332 333 336 338 340 336 331 259 181 191 252 272 198 240 255 303 267 284 311 337 344 323 25 42 322 323 300 349 37 347 29 331 3 339 10 36 9 4 56 333 307 317 322 320
331 334 335 340 337 336 329 273 179 199 249 270 213 261 257 222 233 286 276 243 302 324 295 186 307 312 331 30 359 357 37 50 279 27 305 43 359 87 33 343 326 324 316 324
331 333 336 338 337 336 327 302 253 225 349 306 335 262 44 234 196 205 283 282 291 278 276 316 261 247 147 344 40 4 359 18 336 330 67 339 321 13 0 343 326 323 320 315
327 330 331 335 336 331 344 287 23 79 209 295 282 347 306 272 220 214 222 266 255 261 243 236 236 259 38 54 88 65 350 319 322 285 333 329 157 348 331 328 326 320 321 317
325 327 331 332 335 328 80 72 78 150 332 285 287 316 286 319 310 305 284 234 251 273 251 231 31 48 53 89 85 53 354 347 349 288 326 302 303 318 319 326 326 323 323 324
322 325 327 328 323 294 78 8 249 237 189 295 301 287 323 319 320 354 8 354 234 245 8 41 59 357 19 80 68 149 354 325 312 295 306 304 298 303 319 321 320 321 321 317
324 322 324 323 303 137 148 180 11 328 177 278 313 323 313 318 335 352 351 345 54 37 57 49 46 19 44 59 21 331 331 325 320 314 321 306 326 316 315 316 317 317 315 324
321 325 330 326 70 123 116 3 343 345 85 78 36 282 356 8 341 331 355 8 32 22 92 44 58 25 38 76 302 322 324 322 315 325 320 288 294 306 324 326 330 337 343 339
323 332 345 43 40 34 268 309 84 54 77 49 68 91 288 352 342 291 330 12 45 280 78 58 71 347 51 276 329 322 323 311 298 312 313 316 327 329 330 332 342 346 342 340
336 17 35 8 314 309 322 10 18 19 349 26 82 350 284 23 354 306 353 343 110 63 297 79 60 111 267 282 306 302 309 306 305 324 334 334 335 338 333 335 336 337 335 339
6 8 345 265 335 52 33 36 62 327 21 11 286 141 275 330 45 271 182 287 313 71 273 103 353 350 282 301 311 305 306 304 303 289 293 301 305 318 328 338 344 341 343 350
280 291 318 2 32 30 76 354 329 43 265 327 45 293 224 295 354 43 316 270 31 209 12 74 33 258 305 326 321 322 322 323 322 308 314 323 323 328 330 335 343 348 347 350
28 44 33 29 326 35 71 342 323 346 337 337 340 323 309 329 26 289 9 21 245 359 37 100 195 297 317 329 325 332 327 326 324 326 319 328 334 335 352 346 351 351 359 2
68 62 350 64 348 233 174 175 212 264 51 331 139 288 10 310 345 329 19 6 23 50 47 21 321 328 327 327 321 329 336 337 336 337 335 340 356 350 357 1 357 3 8 4
86 62 258 109 203 73 168 121 14 316 144 42 356 344 71 323 355 33 317 15 46 19 40 338 325 321 323 326 331 326 330 339 345 337 341 340 347 357 2 3 3 11 16 19
80 59 93 295 84 319 7 48 273 231 71 108 59 41 34 32 346 40 27 360 18 331 320 308 313 320 324 329 329 325 326 330 334 343 344 339 352 353 345 351 12 13 16 22
67 339 31 109 100 163 200 158 248 190 64 32 90 47 262 243 49 53 13 32 344 321 314 324 319 322 334 331 332 338 342 340 343 341 354 351 340 341 2 12 1 7 16 20